This demonstration page uses our WeatherBlox Daily Observations layout. Learn more.

Left ArrowRight Arrow

Hourly Observations for August 9, 2017

Temp ( °F °C ) Dew Point ( °F °C ) Humidity (%) Winds ( mph kmh ) Pressure ( in mb ) Visibility ( mi km ) Precip ( " mm )
12:51 am 00:51 Partly Cloudy 75 23.9 55 12.8 50 50 Calm 29.82 1010 10 16.0934 0 0.0254
1:51 am 01:51 Clear 73 22.8 55 12.8 53 53 E 5 7 29.81 1009 10 16.0934 0 0
2:51 am 02:51 Clear 78 25.6 51 10.6 39 39 Calm 29.8 1009 10 16.0934 0 0
3:51 am 03:51 Clear 72 22.2 56 13.3 57 57 ENE 6 9 29.81 1010 10 16.0934 0 0
4:51 am 04:51 Clear 73 22.8 56 13.3 55 55 SW 3 6 29.83 1010 10 16.0934 0 0
5:51 am 05:51 Sunny 74 23.3 56 13.3 54 54 E 6 9 29.83 1010 10 16.0934 0 0
6:51 am 06:51 Sunny 79 26.1 57 13.9 47 47 ESE 8 13 29.85 1011 10 16.0934 0 0
7:51 am 07:51 Sunny 84 28.9 56 13.3 38 38 ESE 8 13 29.87 1012 10 16.0934 0 0
8:51 am 08:51 Sunny 88 31.1 58 14.4 36 36 S 8 13 29.87 1012 10 16.0934 0 0
9:51 am 09:51 Sunny 90 32.2 59 15 35 35 SSE 8 13 29.87 1012 10 16.0934 0 0
10:51 am 10:51 Sunny 94 34.4 60 15.6 32 32 E 10 17 29.85 1011 10 16.0934 0 0
11:51 am 11:51 Sunny 95 35 60 15.6 31 31 ESE 7 11 29.84 1011 10 16.0934 0 0
12:51 pm 12:51 Sunny 97 36.1 61 16.1 30 30 SW 5 7 29.82 1010 10 16.0934 0 0
1:51 pm 13:51 Sunny 95 35 56 13.3 27 27 W 5 7 29.81 1010 10 16.0934 0 0
2:51 pm 14:51 Mostly Sunny 94 34.4 58 14.4 30 30 WSW 9 15 29.78 1009 10 16.0934 0 0
3:51 pm 15:51 Sunny with Nearby Thunderstorms 99 37.2 53 11.7 21 21 NNW 5 7 29.76 1008 10 16.0934 0 0
4:07 pm 16:07 Sunny 98 36.7 50 10 20 20 Calm 29.65 1004 10 16.0934 0 0
4:51 pm 16:51 Sunny 97 36.1 54 12.2 24 24 S 9 15 29.76 1008 10 16.0934 0 0
5:51 pm 17:51 Sunny 92 33.3 57 13.9 31 31 S 13 20 29.78 1008 10 16.0934 0 0
6:51 pm 18:51 Sunny 92 33.3 57 13.9 31 31 Calm 29.76 1008 10 16.0934 0 0
7:51 pm 19:51 Clear 86 30 59 15 40 40 ENE 3 6 29.78 1008 10 16.0934 0 0
8:51 pm 20:51 Clear 83 28.3 59 15 44 44 ENE 5 7 29.79 1009 10 16.0934 0 0
9:51 pm 21:51 Clear 84 28.9 57 13.9 40 40 E 7 11 29.79 1009 10 16.0934 0 0
10:51 pm 22:51 Mostly Clear 82 27.8 59 15 46 46 undefined N/A 29.8 1009 10 16.0934 0 0
11:51 pm 23:51 Mostly Clear 82 27.8 59 15 46 46 ENE 7 11 29.81 1010 10 16.0934 0 0

Powered by AerisWeather